This demonstration page uses our WeatherBlox Daily Observations layout. Learn more.

Left ArrowRight Arrow

39.29038, -76.61219

Hourly Observations for February 26, 2017

Temp ( °F °C ) Dew Point ( °F °C ) Humidity (%) Winds ( mph kmh ) Pressure ( in mb ) Visibility ( mi km ) Precip ( " mm )
12:54 am 00:54 undefined 44 6.7 21 -6.1 40 40 undefined N/A 29.87 1012 N/A N/A
1:54 am 01:54 undefined 43 6.1 21 -6.1 42 42 undefined N/A 29.89 1012 N/A N/A
2:54 am 02:54 undefined 41 5 20 -6.7 43 43 undefined N/A 29.90 1013 N/A N/A
3:54 am 03:54 undefined 39 3.9 19 -7.2 45 45 undefined N/A 29.92 1013 N/A N/A
4:54 am 04:54 undefined 38 3.3 18 -7.8 44 44 undefined N/A 29.96 1015 N/A N/A
5:54 am 05:54 undefined 38 3.3 18 -7.8 44 44 undefined N/A 30.00 1016 N/A N/A
6:54 am 06:54 undefined 37 2.8 16 -8.9 42 42 undefined N/A 30.03 1017 N/A N/A
7:54 am 07:54 undefined 37 2.8 15 -9.4 41 41 undefined N/A 30.08 1019 N/A N/A
8:54 am 08:54 undefined 37 2.8 14 -10 39 39 undefined N/A 30.11 1020 N/A N/A
9:54 am 09:54 undefined 39 3.9 14 -10 36 36 undefined N/A 30.14 1021 N/A N/A
10:54 am 10:54 undefined 40 4.4 14 -10 35 35 undefined N/A 30.15 1021 N/A N/A
11:54 am 11:54 undefined 41 5 14 -10 33 33 undefined N/A 30.16 1021 N/A N/A
12:54 pm 12:54 undefined 44 6.7 15 -9.4 31 31 undefined N/A 30.15 1021 N/A N/A
1:54 pm 13:54 undefined 45 7.2 16 -8.9 31 31 undefined N/A 30.16 1021 N/A N/A
2:54 pm 14:54 undefined 45 7.2 16 -8.9 31 31 undefined N/A 30.14 1021 N/A N/A
3:54 pm 15:54 undefined 45 7.2 16 -8.9 31 31 undefined N/A 30.13 1020 N/A N/A
4:54 pm 16:54 undefined 45 7.2 16 -8.9 31 31 undefined N/A 30.16 1021 N/A N/A
5:54 pm 17:54 undefined 45 7.2 17 -8.3 33 33 undefined N/A 30.19 1023 N/A N/A
6:54 pm 18:54 undefined 44 6.7 17 -8.3 34 34 undefined N/A 30.23 1024 N/A N/A
7:54 pm 19:54 undefined 43 6.1 18 -7.8 37 37 undefined N/A 30.25 1025 N/A N/A
8:54 pm 20:54 undefined 42 5.6 18 -7.8 38 38 undefined N/A 30.27 1025 N/A N/A
9:54 pm 21:54 undefined 41 5 20 -6.7 43 43 undefined N/A 30.28 1026 N/A N/A
10:54 pm 22:54 undefined 40 4.4 21 -6.1 47 47 undefined N/A 30.28 1026 N/A N/A
11:54 pm 23:54 undefined 39 3.9 23 -5 53 53 undefined N/A 30.30 1026 N/A N/A

Powered by AerisWeather